Location: Cabeza de los Veneras
(40.2000°N, 5.2000°W)
Time: 04:58:39
(UTC+00:00)

BlueWalker 3 - Pass Details

Date: 26 June 2024
Orbit: 480 x 491 km, 53.2° (Epoch: 21 July)

Event Time Altitude Azimuth Distance (km) Brightness Sun altitude
Rises 01:19:25 0° 311° (NW) 2,538 5.9 -25.1°
Reaches altitude 10° 01:21:36 10° 314° (NW) 1,656 4.9 -25.0°
Enters shadow 01:23:45 32° 322° (NW) 843 3.3 -24.9°
